DL1NER Weather Reports


time (UTC)temp
F
wind
direction
speed
knots
gust
knots
rain 1hr
in
rain 24hr
in
rain mn
in
humidity
%
barometer
mb
20220627213012 62 234 2.6 6.1 0.00 0.26 0.26 93 1019.4
20220627212012 62 202 1.7 6.1 0.00 0.26 0.26 93 1019.5
20220627211012 62 240 1.7 6.1 0.00 0.26 0.26 93 1019.1
20220627210012 62 240 1.7 6.1 0.00 0.26 0.26 93 1019.1
20220627205012 62 253 2.6 6.1 0.00 0.26 0.26 91 1018.3
20220627204012 62 257 1.7 3.5 0.00 0.26 0.26 90 1018.3
20220627203012 62 257 1.7 3.5 0.01 0.26 0.26 89 1018.5
20220627202012 62 257 0.9 3.5 0.06 0.26 0.26 88 1018.6
20220627201012 62 260 2.6 6.1 0.06 0.26 0.26 89 1018.9
20220627200013 62 260 2.6 6.1 0.06 0.26 0.26 89 1018.9
20220627195012 62 229 1.7 2.6 0.06 0.26 0.26 88 1018.6
20220627194012 64 227 2.6 7.8 0.07 0.25 0.25 85 1017.6
20220627193012 64 227 2.6 7.8 0.07 0.25 0.25 85 1017.6
20220627192012 64 300 2.6 7.0 0.02 0.20 0.20 83 1017.7
20220627191012 66 261 4.3 10.4 0.02 0.20 0.20 80 1017.9
20220627190012 66 261 4.3 10.4 0.02 0.20 0.20 80 1017.9
20220627185012 68 262 6.1 14.8 0.02 0.20 0.20 78 1017.8
20220627184011 71 250 4.3 8.7 0.00 0.18 0.18 71 1017.3
20220627183012 71 250 4.3 8.7 0.00 0.18 0.18 71 1017.3
20220627182011 71 271 7.0 12.2 0.00 0.18 0.18 69 1017.2
20220627181011 72 267 5.2 10.4 0.00 0.18 0.18 71 1017.0
20220627180011 72 267 5.2 10.4 0.00 0.18 0.18 71 1017.0
20220627175011 72 269 4.3 8.7 0.00 0.18 0.18 71 1016.7
20220627174011 73 254 4.3 9.6 0.00 0.18 0.18 72 1016.3
20220627173011 73 254 4.3 9.6 0.00 0.18 0.18 72 1016.3
20220627172011 74 271 4.3 9.6 0.00 0.18 0.18 70 1016.2
20220627171011 75 281 4.3 12.2 0.00 0.18 0.18 70 1015.9
20220627170012 75 242 7.0 13.9 0.00 0.18 0.18 69 1016.0
20220627165011 76 267 7.8 15.6 0.00 0.18 0.18 68 1015.9
20220627164011 76 285 6.1 13.0 0.00 0.18 0.18 67 1015.8
20220627163011 76 285 6.1 13.0 0.00 0.18 0.18 67 1015.8
20220627162011 76 249 5.2 11.3 0.00 0.18 0.18 68 1015.6
20220627161011 75 267 5.2 11.3 0.00 0.18 0.18 70 1015.6
20220627160010 75 267 5.2 11.3 0.00 0.18 0.18 70 1015.6
20220627155011 76 261 7.0 13.0 0.00 0.18 0.18 71 1015.6
20220627154010 75 260 6.1 15.6 0.00 0.18 0.18 70 1015.7
20220627153011 75 287 7.0 13.9 0.00 0.18 0.18 70 1015.7
20220627152011 76 259 7.0 13.9 0.00 0.18 0.18 68 1015.6
20220627151010 76 328 6.1 12.2 0.00 0.18 0.18 67 1015.5
20220627150011 76 256 7.8 13.9 0.00 0.18 0.18 66 1015.6
20220627145010 76 242 6.1 13.0 0.00 0.18 0.18 67 1015.5
20220627144010 76 262 6.1 13.0 0.00 0.18 0.18 68 1015.6
20220627143010 76 278 6.1 13.9 0.00 0.18 0.18 68 1016.3
20220627142010 76 265 5.2 16.5 0.00 0.18 0.18 67 1015.6
20220627141010 76 289 6.1 13.9 0.00 0.18 0.18 69 1015.5
20220627140011 76 277 7.8 13.9 0.00 0.18 0.18 69 1015.6
20220627135010 76 269 6.1 12.2 0.00 0.18 0.18 71 1015.5
20220627134010 76 281 7.0 13.9 0.00 0.18 0.18 68 1015.5
20220627133010 76 272 6.1 13.0 0.00 0.18 0.18 69 1015.4
20220627132010 77 252 4.3 11.3 0.00 0.18 0.18 68 1015.3
20220627131010 77 252 4.3 11.3 0.00 0.18 0.18 68 1015.3
20220627130010 77 246 6.1 13.9 0.00 0.18 0.18 69 1015.2
20220627125014 77 313 2.6 14.8 0.00 0.18 0.18 71 1015.0
20220627124010 77 207 5.2 13.9 0.00 0.18 0.18 69 1015.0
20220627123010 76 293 6.1 13.9 0.00 0.18 0.18 70 1015.1
20220627122010 77 242 6.1 13.0 0.00 0.18 0.18 70 1015.0
20220627121015 77 242 8.7 13.0 0.00 0.18 0.18 70 1015.0
20220627120014 76 274 6.1 13.0 0.00 0.18 0.18 71 1014.8
20220627115014 76 243 2.6 12.2 0.00 0.18 0.18 68 1014.7
20220627114014 76 250 7.0 13.0 0.00 0.18 0.18 68 1014.5
20220627113014 77 269 5.2 13.0 0.00 0.18 0.18 67 1014.3
20220627112014 78 251 6.1 13.9 0.00 0.18 0.18 70 1014.4
20220627111013 77 282 7.0 13.0 0.00 0.18 0.18 71 1014.4
20220627110014 77 228 6.1 13.0 0.00 0.18 0.18 71 1014.3
20220627105014 75 334 6.1 12.2 0.00 0.18 0.18 74 1014.4
20220627104013 75 287 4.3 10.4 0.00 0.18 0.18 76 1014.3
20220627103013 75 287 4.3 10.4 0.00 0.18 0.18 76 1014.3
20220627102014 74 291 3.5 9.6 0.00 0.18 0.18 76 1014.3
20220627101014 74 265 3.5 11.3 0.00 0.18 0.18 79 1014.3
20220627100013 72 348 4.3 10.4 0.00 0.18 0.18 82 1014.1
20220627095013 72 250 5.2 13.0 0.00 0.18 0.18 80 1014.4
20220627094013 72 245 4.3 11.3 0.00 0.18 0.18 81 1014.6
20220627093013 72 248 5.2 9.6 0.00 0.18 0.18 79 1014.4
20220627092013 71 274 6.1 12.2 0.00 0.18 0.18 83 1014.4
20220627091014 71 277 7.0 11.3 0.00 0.18 0.18 81 1014.3
20220627090013 72 267 7.0 13.9 0.00 0.18 0.18 81 1014.1
20220627085013 71 227 7.0 13.9 0.00 0.18 0.18 82 1013.9
20220627084013 72 262 7.8 13.9 0.00 0.18 0.18 85 1013.6
20220627083013 72 262 7.8 13.9 0.00 0.18 0.18 85 1013.6
20220627082013 72 266 4.3 13.9 0.00 0.18 0.18 83 1013.4
20220627081013 73 252 6.1 12.2 0.00 0.18 0.18 84 1013.0
20220627080012 73 252 6.1 12.2 0.00 0.18 0.18 84 1013.0
20220627075013 72 265 6.1 11.3 0.00 0.18 0.18 84 1013.0
20220627074012 71 279 3.5 7.8 0.00 0.18 0.18 87 1013.0
20220627073012 71 279 3.5 7.8 0.00 0.18 0.18 87 1013.0
20220627072012 71 281 2.6 7.0 0.00 0.18 0.18 88 1012.9
20220627071012 69 176 1.7 4.3 0.00 0.18 0.18 87 1012.6
20220627070012 69 176 1.7 4.3 0.00 0.18 0.18 87 1012.6
20220627065012 69 252 1.7 6.1 0.00 0.18 0.18 89 1012.6
20220627064012 68 189 1.7 5.2 0.00 0.18 0.18 90 1012.3
20220627063012 68 189 1.7 5.2 0.00 0.18 0.18 90 1012.3
20220627062012 68 195 1.7 6.1 0.00 0.18 0.18 91 1012.1
20220627061012 68 191 2.6 6.1 0.00 0.18 0.18 91 1012.1
20220627060012 68 191 2.6 6.1 0.00 0.18 0.18 91 1012.1
20220627055012 68 148 2.6 5.2 0.00 0.18 0.18 91 1011.6
20220627054012 68 142 2.6 6.1 0.00 0.18 0.18 90 1011.3
20220627053012 68 130 0.0 3.5 0.00 0.18 0.18 91 1011.3
20220627052012 67 128 0.0 0.0 0.00 0.18 0.18 94 1011.2
20220627051011 66 128 0.9 2.6 0.00 0.18 0.18 96 1011.1
20220627050011 65 175 0.0 1.7 0.00 0.18 0.18 95 1011.4
20220627045011 64 191 0.0 0.0 0.00 0.18 0.18 92 1011.4
20220627044011 64 191 0.0 1.7 0.02 0.18 0.18 89 1011.8
20220627043011 64 191 0.0 1.7 0.02 0.18 0.18 89 1011.8
20220627042011 64 191 0.9 2.6 0.14 0.18 0.18 88 1012.1
20220627041011 64 190 0.9 1.7 0.17 0.18 0.18 85 1012.0
20220627040011 64 190 1.7 5.2 0.17 0.18 0.18 85 1011.7
20220627035011 64 329 5.2 13.9 0.18 0.18 0.18 82 1010.6
20220627034011 65 344 4.3 12.2 0.18 0.18 0.18 82 1011.7
20220627033011 65 325 6.1 11.3 0.16 0.16 0.16 81 1012.5
20220627032011 65 267 4.3 10.4 0.04 0.04 0.04 78 1014.1
20220627031011 66 238 3.5 8.7 0.02 0.02 0.02 76 1013.9
20220627030008 67 258 7.8 15.6 0.01 0.01 0.01 73 1014.1
20220627025008 68 223 7.8 18.2 0.00 0.00 0.00 69 1014.1
20220627024008 68 279 9.6 23.5 0.00 0.00 0.00 67 1013.7
20220627023008 67 265 3.5 10.4 0.00 0.00 0.00 65 1013.3
20220627022008 66 252 1.7 3.5 0.00 0.00 0.00 67 1012.9
20220627021008 65 253 3.5 9.6 0.00 0.00 0.00 69 1012.8
20220627020008 65 294 5.2 10.4 0.00 0.00 0.00 71 1012.6
20220627015008 64 325 1.7 2.6 0.00 0.00 0.00 71 1011.3
20220627014008 64 325 0.9 2.6 0.00 0.00 0.00 70 1011.0
20220627013008 64 325 0.9 2.6 0.00 0.00 0.00 70 1011.0
20220627012008 65 325 1.7 2.6 0.00 0.00 0.00 70 1011.1
20220627011008 65 325 1.7 2.6 0.00 0.00 0.00 70 1011.1
20220627010007 65 325 1.7 2.6 0.00 0.00 0.00 70 1011.0
20220627005008 65 325 0.9 1.7 0.00 0.00 0.00 70 1010.8
20220627004008 65 325 0.0 2.6 0.00 0.00 0.00 69 1010.8
20220627003008 65 325 2.6 3.5 0.00 0.00 0.00 69 1010.8
20220627002012 65 48 0.9 2.6 0.00 0.00 0.00 68 1010.5
20220627001012 65 77 0.9 1.7 0.00 0.00 0.00 67 1010.4
20220627000012 65 77 0.9 1.7 0.00 0.00 0.00 67 1010.4
20220626235012 65 77 0.0 1.7 0.00 0.00 0.00 66 1010.6
20220626234011 66 77 0.0 0.0 0.00 0.00 0.00 65 1010.5
20220626233012 66 77 0.0 0.0 0.00 0.00 0.00 65 1010.5
20220626232011 66 77 0.0 1.7 0.00 0.00 0.00 64 1010.4
20220626231012 66 77 0.9 2.6 0.00 0.00 0.00 65 1010.6
20220626230011 66 77 0.9 2.6 0.00 0.00 0.00 65 1010.6
20220626225012 66 77 0.0 0.9 0.00 0.00 0.00 64 1010.6
20220626224011 66 77 0.0 1.7 0.00 0.00 0.00 64 1010.6
20220626223011 67 77 0.9 1.7 0.00 0.00 0.00 65 1010.6
20220626222011 67 77 0.9 2.6 0.00 0.00 0.00 66 1010.8
20220626221011 67 77 0.9 2.6 0.00 0.00 0.00 66 1010.8
20220626220011 67 77 0.9 2.6 0.00 0.00 0.00 66 1010.8
20220626214011 69 77 0.0 0.0 0.00 0.00 0.00 66 1011.1